カタログに戻る

SL-14 DEB

運用中PO
NORAD 45295·DEBRIS·🇷🇺 Russia

打ち上げ Aug 15, 1991 から Plesetsk Cosmodrome

Loading…

次のパス (今後24時間)

TLE

最新Source: Space-Track

元期: Sep 14, 2026, 07:29 UTC

1 45295U 91056AH  26257.31218609  .00001096  00000-0  19573-2 0  9991
2 45295  82.5709  20.5896 0076131 345.5839  14.3124 13.40029709319680

AllMySatでSL-14 DEBをリアルタイム追跡

Download on the App Store